Flag for Canada Weather past 2 weeks in Burlington, Ontario, Canada

Now
69 °F

Mild.


Feels Like: 69 °F
Forecast: 64 / 76 °F
Wind: 5 mph from Northeast

Location: Burlington Piers

Current Time: Aug 29, 2015 at 8:15:43 PM

Latest Report: Aug 29, 2015 at 7:00 PM


Visibility: N/A

Pressure: 30.06 "Hg

Humidity: 77%

Dew point: 62 °F

Location of BurlingtonLocation

Historic Weather in Burlington — Graph

°F

Burlington temperature yesterday

Maximum temperature yesterday: 71 °F (at 8:00 PM)
Minimum temperature yesterday: 58 °F (at 7:00 AM)
Average temperature yesterday: 64 °F

Past Weeks' High & Low Weather Summary

 TemperatureHumidityPressure
High87 °F (Aug 17, 3:00 PM)97% (Aug 19, 7:00 AM)30.22 "Hg (Aug 19, 7:00 AM)
Low58 °F (Aug 28, 7:00 AM)43% (Aug 24, 2:00 PM)29.70 "Hg (Aug 20, 6:00 AM)
Average69 °F73%30.00 "Hg
* Reported Aug 14 7:00 PM — Aug 29 7:00 PM, Burlington, Weather by CustomWeather, © 2015

Note: Actual official high and low records may vary slightly from our data, if they occured in-between our weather recording intervals... More about our weather records

Advertising

Burlington weather history for previous 24 hours

 ConditionsComfort  
Time TempWeatherWind HumidityBarometerVisibility
7:00 PM
Sat, Aug 29
69 °FMild.5 mph77%30.06 "HgN/A
6:00 PM69 °FMild.3 mph73%30.08 "HgN/A
5:00 PM69 °FMild.7 mph78%30.07 "HgN/A
4:00 PM69 °FMild.10 mph78%30.08 "HgN/A
3:00 PM71 °FMild.9 mph70%30.10 "HgN/A
2:00 PM72 °FMild.6 mph70%30.12 "HgN/A
1:00 PM73 °FMild.3 mph64%30.13 "HgN/A
12:00 PM71 °FMild.3 mph71%30.15 "HgN/A
11:00 AM69 °FMild.3 mph75%30.15 "HgN/A
10:00 AM67 °FMild.2 mph75%30.14 "HgN/A
9:00 AM65 °FMild.3 mph79%30.15 "HgN/A
8:00 AM64 °FMild.3 mph80%30.15 "HgN/A
7:00 AM63 °FMild.5 mph84%30.14 "HgN/A
6:00 AM63 °FMild.5 mph83%30.12 "HgN/A
5:00 AM63 °FMild.3 mph83%30.13 "HgN/A
4:00 AM63 °FMild.3 mph80%30.13 "HgN/A
3:00 AM64 °FMild.3 mph80%30.14 "HgN/A
2:00 AM64 °FMild.5 mph79%30.15 "HgN/A
1:00 AM65 °FMild.5 mph78%30.16 "HgN/A
12:00 AM66 °FMild.3 mph78%30.15 "HgN/A
11:00 PM
Fri, Aug 28
67 °FMild.5 mph71%30.15 "HgN/A
10:00 PM69 °FMild.2 mph72%30.15 "HgN/A
8:00 PM71 °FMild.7 mph63%30.14 "HgN/A
Weather by CustomWeather, © 2015

See weather overviewHow to use our weather pages